Regional Weather Roundup
Issued by NWS Midland/Odessa, TX

Home | Current Version | Previous Version | Text Only | Print | Product List | Glossary On
Versions: 1 2 3 4 5 6 7 8 9 10 11 12 13 14 15 16 17 18 19 20 21 22 23 24 25 26 27 28 29 30 31 32 33 34 35 36 37 38 39 40 41 42 43 44 45 46 47 48 49 50
000
ASUS44 KMAF 281110
RWRMAF
MIDLAND AREA WEATHER ROUNDUP
NATIONAL WEATHER SERVICE MIDLAND TX
500 AM CST TUE FEB 28 2017

...IN SOUTHWEST TEXAS AND SOUTHEAST NEW MEXICO...

CITY           SKY/WX    TMP DP  RH WIND       PRES   REMARKS
ALPINE         MOCLDY    59  22  24 W9        30.04S
ANDREWS        FAIR      58  27  30 SW8       29.89S
ARTESIA        CLOUDY    52  30  43 S9        29.86R
BIG SPRING     MOCLDY    55  39  56 S8        29.91R
CARLSBAD       PTCLDY    62  17  17 W13       29.86R
DRYDEN           N/A     54  45  71 NW8       29.89R
FORT STOCKTON  PTCLDY    60  24  25 SW13      29.92R
GUAD PASS      CLOUDY    53  24  32 SW23G29   29.96S
HOBBS          CLOUDY    50  25  37 SW5       29.88F
MARFA          CLOUDY    48  21  34 CALM      30.03S
MIDLAND AIRPK  CLOUDY    63  47  55 S9        29.90R
MIDLAND INTL   CLOUDY    60  45  57 SW10      29.89F
ODESSA         CLOUDY    56  38  50 SW6       29.90S
PECOS          CLOUDY    49  23  36 SE6       29.88F
PRESIDIO       FAIR      63  17  16 CALM      29.97S
SEMINOLE       PTCLDY    58  26  29 SW9       29.89S
SNYDER         MOCLDY    54  34  46 S5        29.89R
WINK           MOCLDY    54  23  30 SE7       29.87S
$$
...OTHER STATIONS IN TEXAS...

CITY           SKY/WX    TMP DP  RH WIND       PRES   REMARKS
ABILENE        PTCLDY    58  56  93 S8        29.86R
AMARILLO       PTCLDY    47  25  42 SW14      29.79R
AUSTIN         MOCLDY    71  68  90 S8        29.90F FOG
BROWNSVILLE    CLOUDY    74  72  93 S14       29.91S
CORPUS CHRISTI CLOUDY    73  71  93 S15       29.91R
DALLAS FTW     CLOUDY    70  66  87 S16       29.85R
DEL RIO        MOCLDY    65  64  97 E9        29.86S FOG
EL PASO        CLOUDY    56  16  20 SE7       29.93F
HOUSTON INT    CLOUDY    73  70  90 S10       29.97S FOG
LUBBOCK        CLOUDY    61  24  24 SW13      29.86R
SAN ANGELO     CLOUDY    64  61  90 S14       29.86R
SAN ANTONIO    CLOUDY    70  67  90 SE5       29.92S FOG
WACO           CLOUDY    68  66  93 S13       29.89S
WICHITA FALLS  NOT AVBL
$$
...OTHER LOCATIONS IN NEW MEXICO...

CITY           SKY/WX    TMP DP  RH WIND       PRES   REMARKS
ALAMAGORDO     CLOUDY    55  25  30 S17G23    29.92F
ALBUQUERQUE    CLOUDY    48  30  49 SW14G25   29.82R
CANNON AFB     CLOUDY    53  26  35 SW13      29.82S
CLOVIS         CLOUDY    52  27  37 S13       29.83R
HOLLOMAN AFB   CLOUDY    53  27  35 S10       29.94S
ROSWELL        CLOUDY    60  26  27 SW22        N/A
RUIDOSO        CLOUDY    46  23  39 SW32G44   29.89F WCI  37
SANTA FE       CLOUDY    42  31  64 CALM      29.81S
TRUTH OR CONSE CLOUDY    54  27  35 SW14      29.87S
TUCUMCARI      CLOUDY    59  30  33 SW25G35   29.75S
$$



USA.gov is the U.S. government's official web portal to all federal, state and local government web resources and services.